Year,Month,Day,Hour,Minute,Value (Times are PST for temperature in C)
2013,07,07,09,59,18.60
2013,07,07,10,00,18.60
2013,07,07,10,01,18.70
2013,07,07,10,02,18.70
2013,07,07,10,03,18.70
2013,07,07,10,04,18.80
2013,07,07,10,05,18.80
2013,07,07,10,06,18.80
2013,07,07,10,07,18.80
2013,07,07,10,08,18.80
2013,07,07,10,09,18.90
2013,07,07,10,10,18.90
2013,07,07,10,11,18.90
2013,07,07,10,12,18.90
2013,07,07,10,13,19.00
2013,07,07,10,14,19.10
2013,07,07,10,15,19.10
2013,07,07,10,16,19.10
2013,07,07,10,17,19.10
2013,07,07,10,18,19.20
2013,07,07,10,19,19.20
2013,07,07,10,20,19.20
2013,07,07,10,21,19.20
2013,07,07,10,22,19.30
2013,07,07,10,23,19.40
2013,07,07,10,24,19.40
2013,07,07,10,25,19.50
2013,07,07,10,26,19.60
2013,07,07,10,27,19.70
2013,07,07,10,28,19.70
2013,07,07,10,29,19.80
2013,07,07,10,30,19.80
2013,07,07,10,31,19.90
2013,07,07,10,32,19.70
2013,07,07,10,33,19.70
2013,07,07,10,34,19.80
2013,07,07,10,35,19.90
2013,07,07,10,36,19.90
2013,07,07,10,37,19.90
2013,07,07,10,38,19.90
2013,07,07,10,39,19.90
2013,07,07,10,40,19.90
2013,07,07,10,41,19.90
2013,07,07,10,42,19.90
2013,07,07,10,43,19.90
2013,07,07,10,44,19.90
2013,07,07,10,45,19.90
2013,07,07,10,46,19.90
2013,07,07,10,47,19.90
2013,07,07,10,48,19.90
2013,07,07,10,49,20.10
2013,07,07,10,50,20.10
2013,07,07,10,51,20.20
2013,07,07,10,52,20.20
2013,07,07,10,53,20.30
2013,07,07,10,54,20.30
2013,07,07,10,55,20.20
2013,07,07,10,56,20.20
2013,07,07,10,57,20.20
2013,07,07,10,58,20.20
2013,07,07,10,59,20.20
2013,07,07,11,00,20.20
2013,07,07,11,01,20.30
2013,07,07,11,02,20.40
2013,07,07,11,03,20.50
2013,07,07,11,04,20.50
2013,07,07,11,05,20.50
2013,07,07,11,06,20.60
2013,07,07,11,07,20.60
2013,07,07,11,08,20.60
2013,07,07,11,09,20.60
2013,07,07,11,10,20.70
2013,07,07,11,11,20.70
2013,07,07,11,12,20.80
2013,07,07,11,13,20.80
2013,07,07,11,14,20.70
2013,07,07,11,15,20.70
2013,07,07,11,16,20.70
2013,07,07,11,17,20.80
2013,07,07,11,18,20.80
2013,07,07,11,19,20.80
2013,07,07,11,20,20.80
2013,07,07,11,21,20.90
2013,07,07,11,22,20.80
2013,07,07,11,23,20.90
2013,07,07,11,24,20.90
2013,07,07,11,25,20.90
2013,07,07,11,26,20.90
2013,07,07,11,27,21.00
2013,07,07,11,28,21.00
2013,07,07,11,29,21.00
2013,07,07,11,30,21.00
2013,07,07,11,31,21.00
2013,07,07,11,32,21.00
2013,07,07,11,33,21.00
2013,07,07,11,34,21.00
2013,07,07,11,35,21.10
2013,07,07,11,36,21.10
2013,07,07,11,37,21.20
2013,07,07,11,38,21.20
2013,07,07,11,39,21.20
2013,07,07,11,40,21.10
2013,07,07,11,41,21.10
2013,07,07,11,42,21.10
2013,07,07,11,43,21.10
2013,07,07,11,44,21.20
2013,07,07,11,45,21.20
2013,07,07,11,46,21.20
2013,07,07,11,47,21.30
2013,07,07,11,48,21.30
2013,07,07,11,49,21.30
2013,07,07,11,50,21.30
2013,07,07,11,51,21.30
2013,07,07,11,52,21.30
2013,07,07,11,53,21.40
2013,07,07,11,54,21.50
2013,07,07,11,55,21.60
2013,07,07,11,56,21.60
2013,07,07,11,57,21.50
2013,07,07,11,58,21.40
2013,07,07,11,59,21.30
2013,07,07,12,00,21.30
2013,07,07,12,01,21.30
2013,07,07,12,02,21.30
2013,07,07,12,03,21.40
2013,07,07,12,04,21.40
2013,07,07,12,05,21.30
2013,07,07,12,06,21.30
2013,07,07,12,07,21.30
2013,07,07,12,08,21.20
2013,07,07,12,09,21.10
2013,07,07,12,10,20.90
2013,07,07,12,11,20.80
2013,07,07,12,12,20.80
2013,07,07,12,13,20.70
2013,07,07,12,14,20.70
2013,07,07,12,15,20.70
2013,07,07,12,16,20.80
2013,07,07,12,17,20.80
2013,07,07,12,18,20.90
2013,07,07,12,19,21.00
2013,07,07,12,20,21.00
2013,07,07,12,21,20.90
2013,07,07,12,22,21.00
2013,07,07,12,23,21.00
2013,07,07,12,24,21.00
2013,07,07,12,25,21.00
2013,07,07,12,26,21.00
2013,07,07,12,27,21.00
2013,07,07,12,28,20.90
2013,07,07,12,29,20.90
2013,07,07,12,30,20.90
2013,07,07,12,31,20.80
2013,07,07,12,32,20.80
2013,07,07,12,33,20.80
2013,07,07,12,34,20.80
2013,07,07,12,35,20.80
2013,07,07,12,36,20.80
2013,07,07,12,37,20.80
2013,07,07,12,38,20.90
2013,07,07,12,39,20.90
2013,07,07,12,40,20.90
2013,07,07,12,41,20.90
2013,07,07,12,42,21.00
2013,07,07,12,43,21.10
2013,07,07,12,44,21.10
2013,07,07,12,45,21.00
2013,07,07,12,46,21.00
2013,07,07,12,47,21.00
2013,07,07,12,48,21.00
2013,07,07,12,49,21.00
2013,07,07,12,50,21.00
2013,07,07,12,51,21.10
2013,07,07,12,52,21.30
2013,07,07,12,53,21.50
2013,07,07,12,54,21.60
2013,07,07,12,55,21.70
2013,07,07,12,56,21.70
2013,07,07,12,57,21.70
2013,07,07,12,58,21.70
2013,07,07,12,59,21.70
2013,07,07,13,00,21.70
2013,07,07,13,01,21.60
2013,07,07,13,02,21.70
2013,07,07,13,03,21.80
2013,07,07,13,04,21.90
2013,07,07,13,05,22.00
2013,07,07,13,06,22.00
2013,07,07,13,07,22.00
2013,07,07,13,08,22.00
2013,07,07,13,09,22.10
2013,07,07,13,10,22.10
2013,07,07,13,11,22.10
2013,07,07,13,12,22.10
2013,07,07,13,13,22.10
2013,07,07,13,14,22.10
2013,07,07,13,15,22.20
2013,07,07,13,16,22.20
2013,07,07,13,17,22.30
2013,07,07,13,18,22.30
2013,07,07,13,19,22.20
2013,07,07,13,20,22.10
2013,07,07,13,21,22.10
2013,07,07,13,22,22.00
2013,07,07,13,23,22.00
2013,07,07,13,24,21.90
2013,07,07,13,25,21.90
2013,07,07,13,26,21.90
2013,07,07,13,27,21.80
2013,07,07,13,28,21.80
2013,07,07,13,29,21.80
2013,07,07,13,30,21.80
2013,07,07,13,31,21.80
2013,07,07,13,32,21.80
2013,07,07,13,33,21.80
2013,07,07,13,34,21.90
2013,07,07,13,35,22.00
2013,07,07,13,36,22.00
2013,07,07,13,37,22.00
2013,07,07,13,38,22.00
2013,07,07,13,39,22.00
2013,07,07,13,40,22.10
2013,07,07,13,41,22.30
2013,07,07,13,42,22.50
2013,07,07,13,43,22.60
2013,07,07,13,44,22.60
2013,07,07,13,45,22.60
2013,07,07,13,46,22.60
2013,07,07,13,47,22.70
2013,07,07,13,48,22.70
2013,07,07,13,49,22.80
2013,07,07,13,50,22.90
2013,07,07,13,51,22.90
2013,07,07,13,52,22.80
2013,07,07,13,53,22.80
2013,07,07,13,54,22.90
2013,07,07,13,55,22.90
2013,07,07,13,56,22.90
2013,07,07,13,57,23.00
2013,07,07,13,58,23.20
2013,07,07,13,59,23.20
2013,07,07,14,00,23.20
2013,07,07,14,01,23.10
2013,07,07,14,02,23.10
2013,07,07,14,03,22.90
2013,07,07,14,04,23.00
2013,07,07,14,05,23.10
2013,07,07,14,06,23.00
2013,07,07,14,07,22.90
2013,07,07,14,08,22.90
2013,07,07,14,09,22.90
2013,07,07,14,10,23.00
2013,07,07,14,11,23.10
2013,07,07,14,12,23.20
2013,07,07,14,13,23.20
2013,07,07,14,14,23.30
2013,07,07,14,15,23.40
2013,07,07,14,16,23.40
2013,07,07,14,17,23.30
2013,07,07,14,18,23.30
2013,07,07,14,19,23.20
2013,07,07,14,20,23.20
2013,07,07,14,21,23.20
2013,07,07,14,22,23.20
2013,07,07,14,23,23.20
2013,07,07,14,24,23.10
2013,07,07,14,25,23.00
2013,07,07,14,26,22.90
2013,07,07,14,27,22.90
2013,07,07,14,28,22.90
2013,07,07,14,29,22.90
2013,07,07,14,30,22.90
2013,07,07,14,31,22.90
2013,07,07,14,32,22.90
2013,07,07,14,33,22.90
2013,07,07,14,34,22.90
2013,07,07,14,35,22.90
2013,07,07,14,36,22.90
2013,07,07,14,37,22.90
2013,07,07,14,38,22.90
2013,07,07,14,39,22.90
2013,07,07,14,40,22.90
2013,07,07,14,41,22.90
2013,07,07,14,42,22.90
2013,07,07,14,43,22.90
2013,07,07,14,44,22.90
2013,07,07,14,45,22.90
2013,07,07,14,46,22.90
2013,07,07,14,47,22.90
2013,07,07,14,48,22.80
2013,07,07,14,49,22.80
2013,07,07,14,50,22.80
2013,07,07,14,51,22.90
2013,07,07,14,52,22.90
2013,07,07,14,53,22.90
2013,07,07,14,54,22.90
2013,07,07,14,55,22.80
2013,07,07,14,56,22.80
2013,07,07,14,57,22.80
2013,07,07,14,58,22.80
2013,07,07,14,59,22.80
2013,07,07,15,00,22.80
2013,07,07,15,01,22.80
2013,07,07,15,02,22.80
2013,07,07,15,03,22.80
2013,07,07,15,04,22.80
2013,07,07,15,05,22.80
2013,07,07,15,06,22.80
2013,07,07,15,07,22.80
2013,07,07,15,08,22.80
2013,07,07,15,09,22.70
2013,07,07,15,10,22.70
2013,07,07,15,11,22.70
2013,07,07,15,12,22.70
2013,07,07,15,13,22.60
2013,07,07,15,14,22.60
2013,07,07,15,15,22.60
2013,07,07,15,16,22.60
2013,07,07,15,17,22.60
2013,07,07,15,18,22.60
2013,07,07,15,19,22.70
2013,07,07,15,20,22.70
2013,07,07,15,21,22.70
2013,07,07,15,22,22.70
2013,07,07,15,23,22.70
2013,07,07,15,24,22.70
2013,07,07,15,25,22.70
2013,07,07,15,26,22.90
2013,07,07,15,27,22.90
2013,07,07,15,28,22.90
2013,07,07,15,29,22.90
2013,07,07,15,30,22.80
2013,07,07,15,31,22.80
2013,07,07,15,32,22.90
2013,07,07,15,33,22.90
2013,07,07,15,34,22.90
2013,07,07,15,35,22.90
2013,07,07,15,36,22.90
2013,07,07,15,37,22.80
2013,07,07,15,38,22.70
2013,07,07,15,39,22.60
2013,07,07,15,40,22.50
2013,07,07,15,41,22.40
2013,07,07,15,42,22.30
2013,07,07,15,43,22.30
2013,07,07,15,44,22.20
2013,07,07,15,45,22.20
2013,07,07,15,46,22.30
2013,07,07,15,47,22.60
2013,07,07,15,48,22.60
2013,07,07,15,49,22.80
2013,07,07,15,50,22.90
2013,07,07,15,51,22.90
2013,07,07,15,52,23.00
2013,07,07,15,53,23.10
2013,07,07,15,54,23.10
2013,07,07,15,55,23.20
2013,07,07,15,56,23.20
2013,07,07,15,57,23.20
2013,07,07,15,58,23.20
2013,07,07,15,59,23.00
2013,07,07,16,00,22.90
2013,07,07,16,01,22.90
2013,07,07,16,02,22.80
2013,07,07,16,03,22.80
2013,07,07,16,04,22.70
2013,07,07,16,05,22.70
2013,07,07,16,06,22.70
2013,07,07,16,07,22.80
2013,07,07,16,08,22.80
2013,07,07,16,09,22.80
2013,07,07,16,10,22.70
2013,07,07,16,11,22.70
2013,07,07,16,12,22.90
2013,07,07,16,13,22.90
2013,07,07,16,14,22.80
2013,07,07,16,15,22.80
2013,07,07,16,16,22.80
2013,07,07,16,17,23.00
2013,07,07,16,18,23.20
2013,07,07,16,19,23.30
2013,07,07,16,20,23.30
2013,07,07,16,21,23.40
2013,07,07,16,22,23.40
2013,07,07,16,23,23.60
2013,07,07,16,24,23.60
2013,07,07,16,25,23.70
2013,07,07,16,26,23.70
2013,07,07,16,27,23.50
2013,07,07,16,28,23.40
2013,07,07,16,29,23.40
2013,07,07,16,30,23.40
2013,07,07,16,31,23.30
2013,07,07,16,32,23.20
2013,07,07,16,33,23.10
2013,07,07,16,34,23.00
2013,07,07,16,35,22.90
2013,07,07,16,36,22.80
2013,07,07,16,37,22.60
2013,07,07,16,38,22.50
2013,07,07,16,39,22.30
2013,07,07,16,40,22.20
2013,07,07,16,41,22.10
2013,07,07,16,42,22.00
2013,07,07,16,43,22.00
2013,07,07,16,44,21.90
2013,07,07,16,45,21.90
2013,07,07,16,46,21.80
2013,07,07,16,47,21.80
2013,07,07,16,48,21.70
2013,07,07,16,49,21.70
2013,07,07,16,50,21.70
2013,07,07,16,51,21.70
2013,07,07,16,52,21.70
2013,07,07,16,53,21.70
2013,07,07,16,54,21.80
2013,07,07,16,55,21.80
2013,07,07,16,56,21.80
2013,07,07,16,57,21.90
2013,07,07,16,58,22.00
2013,07,07,16,59,22.10
2013,07,07,17,00,22.20
2013,07,07,17,01,22.30
2013,07,07,17,02,22.30
2013,07,07,17,03,22.30
2013,07,07,17,04,22.30
2013,07,07,17,05,22.30
2013,07,07,17,06,22.20
2013,07,07,17,07,22.20
2013,07,07,17,08,22.20
2013,07,07,17,09,22.20
2013,07,07,17,10,22.20
2013,07,07,17,11,22.20
2013,07,07,17,12,22.20
2013,07,07,17,13,22.20
2013,07,07,17,14,22.20
2013,07,07,17,15,22.30
2013,07,07,17,16,22.30
2013,07,07,17,17,22.30
2013,07,07,17,18,22.30
2013,07,07,17,19,22.30
2013,07,07,17,20,22.30
2013,07,07,17,21,22.30
2013,07,07,17,22,22.30
2013,07,07,17,23,22.30
2013,07,07,17,24,22.30
2013,07,07,17,25,22.30
2013,07,07,17,26,22.30
2013,07,07,17,27,22.20
2013,07,07,17,28,22.20
2013,07,07,17,29,22.20
2013,07,07,17,30,22.30
2013,07,07,17,31,22.30
2013,07,07,17,32,22.40
2013,07,07,17,33,22.40
2013,07,07,17,34,22.50
2013,07,07,17,35,22.50
2013,07,07,17,36,22.50
2013,07,07,17,37,22.50
2013,07,07,17,38,22.60
2013,07,07,17,39,22.60
2013,07,07,17,40,22.70
2013,07,07,17,41,22.80
2013,07,07,17,42,22.80
2013,07,07,17,43,22.80
2013,07,07,17,44,22.80
2013,07,07,17,45,22.90
2013,07,07,17,46,22.90
2013,07,07,17,47,22.80
2013,07,07,17,48,22.80
2013,07,07,17,49,22.80
2013,07,07,17,50,22.80
2013,07,07,17,51,22.90
2013,07,07,17,52,22.90
2013,07,07,17,53,23.10
2013,07,07,17,54,23.20
2013,07,07,17,55,23.20
2013,07,07,17,56,23.20
2013,07,07,17,57,23.20
2013,07,07,17,58,23.20
2013,07,07,17,59,23.20
2013,07,07,18,00,23.20
2013,07,07,18,01,23.20
2013,07,07,18,02,23.10
2013,07,07,18,03,23.10
2013,07,07,18,04,23.00
2013,07,07,18,05,22.90
2013,07,07,18,06,22.90
2013,07,07,18,07,22.90
2013,07,07,18,08,22.90
2013,07,07,18,09,22.80
2013,07,07,18,10,22.80
2013,07,07,18,11,22.80
2013,07,07,18,12,22.80
2013,07,07,18,13,22.80
2013,07,07,18,14,22.80
2013,07,07,18,15,22.80
2013,07,07,18,16,22.80
2013,07,07,18,17,22.80
2013,07,07,18,18,22.70
2013,07,07,18,19,22.70
2013,07,07,18,20,22.70
2013,07,07,18,21,22.70
2013,07,07,18,22,22.70
2013,07,07,18,23,22.70
2013,07,07,18,24,22.70
2013,07,07,18,25,22.70
2013,07,07,18,26,22.80
2013,07,07,18,27,22.90
2013,07,07,18,28,22.90
2013,07,07,18,29,22.90
2013,07,07,18,30,22.90
2013,07,07,18,31,23.10
2013,07,07,18,32,23.10
2013,07,07,18,33,23.20
2013,07,07,18,34,23.10
2013,07,07,18,35,23.10
2013,07,07,18,36,23.10
2013,07,07,18,37,23.20
2013,07,07,18,38,23.20
2013,07,07,18,39,23.10
2013,07,07,18,40,23.10
2013,07,07,18,41,23.10
2013,07,07,18,42,23.20
2013,07,07,18,43,23.30
2013,07,07,18,44,23.30
2013,07,07,18,45,23.30
2013,07,07,18,46,23.30
2013,07,07,18,47,23.30
2013,07,07,18,48,23.30
2013,07,07,18,49,23.30
2013,07,07,18,50,23.30
2013,07,07,18,51,23.30
2013,07,07,18,52,23.20
2013,07,07,18,53,23.10
2013,07,07,18,54,23.10
2013,07,07,18,55,23.00
2013,07,07,18,56,22.90
2013,07,07,18,57,22.90
2013,07,07,18,58,22.90
2013,07,07,18,59,22.90
2013,07,07,19,00,22.90
2013,07,07,19,01,22.80
2013,07,07,19,02,22.80
2013,07,07,19,03,22.70
2013,07,07,19,04,22.60
2013,07,07,19,05,22.50
2013,07,07,19,06,22.40
2013,07,07,19,07,22.30
2013,07,07,19,08,22.30
2013,07,07,19,09,22.20
2013,07,07,19,10,22.20
2013,07,07,19,11,22.10
2013,07,07,19,12,22.00
2013,07,07,19,13,22.00
2013,07,07,19,14,21.90
2013,07,07,19,15,21.80
2013,07,07,19,16,21.70
2013,07,07,19,17,21.60
2013,07,07,19,18,21.40
2013,07,07,19,19,21.30
2013,07,07,19,20,21.30
2013,07,07,19,21,21.30
2013,07,07,19,22,21.20
2013,07,07,19,23,21.20
2013,07,07,19,24,21.10
2013,07,07,19,25,21.10
2013,07,07,19,26,21.10
2013,07,07,19,27,21.20
2013,07,07,19,28,21.20
2013,07,07,19,29,21.30
2013,07,07,19,30,21.30
2013,07,07,19,31,21.30
2013,07,07,19,32,21.30
2013,07,07,19,33,21.40
2013,07,07,19,34,21.40
2013,07,07,19,35,21.50
2013,07,07,19,36,21.60
2013,07,07,19,37,21.50
2013,07,07,19,38,21.40
2013,07,07,19,39,21.30
2013,07,07,19,40,21.20
2013,07,07,19,41,21.10
2013,07,07,19,42,21.00
2013,07,07,19,43,21.00
2013,07,07,19,44,21.00
2013,07,07,19,45,21.00
2013,07,07,19,46,20.90
2013,07,07,19,47,20.90
2013,07,07,19,48,20.90
2013,07,07,19,49,20.90
2013,07,07,19,50,20.90
2013,07,07,19,51,20.90
2013,07,07,19,52,20.80
2013,07,07,19,53,20.80
2013,07,07,19,54,20.80
2013,07,07,19,55,20.80
2013,07,07,19,56,20.80
2013,07,07,19,57,20.70
2013,07,07,19,58,20.70
2013,07,07,19,59,20.70
2013,07,07,20,00,20.60
2013,07,07,20,01,20.50
2013,07,07,20,02,20.50
2013,07,07,20,03,20.60
2013,07,07,20,04,20.60
2013,07,07,20,05,20.60
2013,07,07,20,06,20.60
2013,07,07,20,07,20.60
2013,07,07,20,08,20.60
2013,07,07,20,09,20.70
2013,07,07,20,10,20.70
2013,07,07,20,11,20.70
2013,07,07,20,12,20.70
2013,07,07,20,13,20.70
2013,07,07,20,14,20.60
2013,07,07,20,15,20.60
2013,07,07,20,16,20.60
2013,07,07,20,17,20.60
2013,07,07,20,18,20.60
2013,07,07,20,19,20.60
2013,07,07,20,20,20.50
2013,07,07,20,21,20.50
2013,07,07,20,22,20.50
2013,07,07,20,23,20.50
2013,07,07,20,24,20.50
2013,07,07,20,25,20.50
2013,07,07,20,26,20.40
2013,07,07,20,27,20.40
2013,07,07,20,28,20.40
2013,07,07,20,29,20.40
2013,07,07,20,30,20.30
2013,07,07,20,31,20.30
2013,07,07,20,32,20.30
2013,07,07,20,33,20.30
2013,07,07,20,34,20.20
2013,07,07,20,35,20.20
2013,07,07,20,36,20.20
2013,07,07,20,37,20.00
2013,07,07,20,38,19.90
2013,07,07,20,39,19.80
2013,07,07,20,40,19.70
2013,07,07,20,41,19.70
2013,07,07,20,42,19.70
2013,07,07,20,43,19.70
2013,07,07,20,44,19.70
2013,07,07,20,45,19.70
2013,07,07,20,46,19.70
2013,07,07,20,47,19.70
2013,07,07,20,48,19.70
2013,07,07,20,49,19.70
2013,07,07,20,50,19.70
2013,07,07,20,51,19.70
2013,07,07,20,52,19.70
